ATLAS 5 CENTAUR DEB, 47096

Orbit data source: Space-Track

ATLAS 5 CENTAUR DEB, 47096 is space debris in HEO originally from a launch on Wed, 17 Sep 2014 UTC launched from the Air Force Eastern Test Range (AFETR). Debris objects in space refer to the collection of defunct objects orbiting the Earth. Examples of debris include non-operational satellites, rocket bodies, and fragments generated from explosions, collisions, or faulty payload assembly.

Loading next visibility...
Identifier
47096, 2014-055DE
Orbit
HEO
Country
Flag of USUS
Related business
Flag of USUnited Launch Alliance/Lockheed Martin (US)
Manufacturer
Unknown
Mission
Spacecraft
Bus & Motor
Unknown
Mass
Unknown
Launch date (UTC)
2014-09-17 (11 years ago)
Launch vehicle
Unknown
Launch site
Air Force Eastern Test Range (AFETR)
Object type
Payload
Rocket body
Debris
Shape & HBR
Unknown
Radar Cross Section
RCS unknown

Expand to show TLE details & history
Last TLE update: 3 days ago

TLE from 3 days ago
0 ATLAS 5 CENTAUR DEB
1 47096U 14055DE  25258.73803415 -.00000009  00000-0  00000-0 0  9994
2 47096  19.2654 192.9477 4897310  79.4254 330.1595  1.79152888 32209
Epoch: 2025-09-15T17:42Z
TLE epoch observation values (Epoch: 2025-09-15T17:42:46.15Z)
Latitude
0.00001°
Longitude
-67.74257°
Altitude
13,626.987 km
Speed
5.092 km/s
True Right ascension
12h 51m 33s
True Declination
0° 00' 00"
Sunlit
Object was in daylight at epoch
Visualization orbit readout
Latitude
Unknown
Longitude
Unknown
Altitude
Unknown
Speed
Unknown
Apparent Right ascension
Unknown
Apparent Declination
Unknown
Sunlit
N/A
Visualization observer readout
Local Sidereal Time
08:52:55
Azimuth
Unknown
Elevation
Unknown
Doppler factor
Unknown
Orbital elements
Apogee altitude
36,285.401 km
Perigee altitude
8,235.159 km
Semi-major axis
28,638.417 km
Eccentricity
0.48973
Inclination
19.2654°
RAAN
192.9477°
Arg. of periapsis
79.4254°
True anomaly
280.47297°
Mean anomaly
330.1595°
Eccentric anomaly
308.06917°
Mean motion
0.44784 °/min
Orbital period
803.86 mins
BSTAR
0
Loading maneuver chart data...
Computing Atmospheric mass density...

Documentation

Showing up to 5 results
|